EN

Hourly Weather Trawno

Today, 21 April, Wednesday

Time Temperature Precipitation Wind Pressure Humidity
00:00 +7°C° 0 mm 2 mps 739 mmHg 76%
01:00 +7°C° 0 mm 2 mps 738 mmHg 81%
02:00 +6°C° 0.1 mm 2 mps 738 mmHg 84%
03:00 +6°C° 0.1 mm 2 mps 738 mmHg 87%
04:00 +6°C° 0.1 mm 2 mps 738 mmHg 91%
05:00 +7°C° 0 mm 3 mps 738 mmHg 87%
06:00 +8°C° 0 mm 3 mps 738 mmHg 83%
07:00 +8°C° 0 mm 4 mps 738 mmHg 79%
08:00 +10°C° 0.4 mm 4 mps 738 mmHg 73%
09:00 +12°C° 0.4 mm 4 mps 738 mmHg 67%
10:00 +13°C° 0.4 mm 5 mps 738 mmHg 61%
11:00 +14°C° 0.4 mm 5 mps 738 mmHg 56%
12:00 +14°C° 0.4 mm 5 mps 738 mmHg 51%
13:00 +15°C° 0.4 mm 5 mps 738 mmHg 46%
14:00 +15°C° 0 mm 5 mps 737 mmHg 46%
15:00 +15°C° 0 mm 5 mps 737 mmHg 46%
16:00 +15°C° 0 mm 5 mps 737 mmHg 46%
17:00 +13°C° 0 mm 4 mps 737 mmHg 52%
18:00 +12°C° 0 mm 3 mps 737 mmHg 58%
19:00 +10°C° 0 mm 2 mps 738 mmHg 64%
20:00 +10°C° 0 mm 2 mps 738 mmHg 65%
21:00 +9°C° 0 mm 2 mps 738 mmHg 66%
22:00 +9°C° 0 mm 2 mps 738 mmHg 67%
23:00 +8°C° 0 mm 2 mps 738 mmHg 70%

Tomorrow, 22 April, Thursday

Time Temperature Precipitation Wind Pressure Humidity
00:00 +8°C° 0 mm 3 mps 738 mmHg 73%
01:00 +7°C° 0 mm 3 mps 738 mmHg 76%
02:00 +7°C° 0 mm 3 mps 738 mmHg 80%
03:00 +5°C° 0 mm 3 mps 738 mmHg 84%
04:00 +4°C° 0 mm 3 mps 738 mmHg 87%
05:00 +4°C° 0 mm 4 mps 739 mmHg 87%
06:00 +4°C° 0 mm 4 mps 739 mmHg 87%
07:00 +3°C° 0 mm 5 mps 740 mmHg 87%
08:00 +5°C° 0.2 mm 5 mps 740 mmHg 78%
09:00 +5°C° 0.2 mm 5 mps 740 mmHg 69%
10:00 +4°C° 0.2 mm 6 mps 741 mmHg 59%
11:00 +5°C° 0 mm 6 mps 741 mmHg 53%
12:00 +6°C° 0 mm 7 mps 741 mmHg 47%
13:00 +8°C° 0 mm 7 mps 741 mmHg 40%
14:00 +8°C° 0 mm 7 mps 741 mmHg 40%
15:00 +8°C° 0 mm 7 mps 740 mmHg 40%
16:00 +8°C° 0 mm 7 mps 740 mmHg 40%
17:00 +6°C° 0 mm 5 mps 741 mmHg 46%
18:00 +5°C° 0 mm 4 mps 741 mmHg 52%
19:00 +4°C° 0 mm 3 mps 741 mmHg 58%
20:00 +3°C° 0 mm 3 mps 741 mmHg 62%
21:00 +2°C° 0 mm 3 mps 742 mmHg 65%
22:00 +2°C° 0 mm 3 mps 742 mmHg 69%
23:00 +2°C° 0 mm 3 mps 742 mmHg 73%

Day after tomorrow, 23 April, Friday

Time Temperature Precipitation Wind Pressure Humidity
00:00 +1°C° 0 mm 3 mps 742 mmHg 76%
01:00 0°C° 0 mm 4 mps 742 mmHg 80%
02:00 0°C° 0 mm 4 mps 742 mmHg 81%
03:00 -1°C° 0 mm 4 mps 742 mmHg 82%
04:00 0°C° 0 mm 3 mps 742 mmHg 84%
05:00 0°C° 0 mm 4 mps 742 mmHg 78%
06:00 +1°C° 0 mm 5 mps 743 mmHg 72%
07:00 +2°C° 0 mm 5 mps 743 mmHg 67%
08:00 +3°C° 0.1 mm 6 mps 743 mmHg 61%
09:00 +4°C° 0.1 mm 6 mps 743 mmHg 55%
10:00 +5°C° 0.1 mm 6 mps 743 mmHg 50%
11:00 +4°C° 0.4 mm 6 mps 743 mmHg 60%
12:00 +3°C° 0.4 mm 6 mps 743 mmHg 71%
13:00 +2°C° 0.4 mm 7 mps 744 mmHg 82%
14:00 +3°C° 0.2 mm 6 mps 744 mmHg 79%
15:00 +3°C° 0.2 mm 6 mps 744 mmHg 75%
16:00 +3°C° 0.2 mm 5 mps 744 mmHg 71%
17:00 +3°C° 0.1 mm 5 mps 744 mmHg 75%
18:00 +2°C° 0.1 mm 5 mps 745 mmHg 79%
19:00 +1°C° 0.1 mm 5 mps 745 mmHg 82%
20:00 +1°C° 0 mm 5 mps 745 mmHg 81%
21:00 0°C° 0 mm 4 mps 745 mmHg 80%
22:00 0°C° 0 mm 4 mps 745 mmHg 78%
23:00 -1°C° 0 mm 4 mps 745 mmHg 80%

24 April, Saturday

Time Temperature Precipitation Wind Pressure Humidity
00:00 -2°C° 0 mm 4 mps 745 mmHg 81%
01:00 -2°C° 0 mm 3 mps 746 mmHg 83%
02:00 -3°C° 0 mm 4 mps 746 mmHg 81%
03:00 -3°C° 0 mm 4 mps 746 mmHg 80%
04:00 -3°C° 0 mm 4 mps 746 mmHg 79%
05:00 -2°C° 0 mm 4 mps 746 mmHg 72%
06:00 -1°C° 0 mm 5 mps 746 mmHg 66%
07:00 +1°C° 0 mm 5 mps 746 mmHg 59%
08:00 +2°C° 0 mm 5 mps 746 mmHg 51%
09:00 +5°C° 0 mm 5 mps 746 mmHg 44%
10:00 +7°C° 0 mm 5 mps 746 mmHg 37%
11:00 +6°C° 0.1 mm 5 mps 745 mmHg 47%
12:00 +5°C° 0.1 mm 6 mps 745 mmHg 57%
13:00 +5°C° 0.1 mm 6 mps 745 mmHg 66%
14:00 +4°C° 0.4 mm 6 mps 745 mmHg 70%
15:00 +5°C° 0.4 mm 5 mps 744 mmHg 74%
16:00 +5°C° 0.4 mm 5 mps 744 mmHg 78%
17:00 +3°C° 0.2 mm 5 mps 744 mmHg 81%
18:00 +3°C° 0.2 mm 4 mps 744 mmHg 83%
19:00 +3°C° 0.2 mm 4 mps 744 mmHg 85%
20:00 +2°C° 0.4 mm 3 mps 745 mmHg 86%
21:00 +1°C° 0.4 mm 3 mps 745 mmHg 87%
22:00 +2°C° 0.4 mm 2 mps 745 mmHg 88%
23:00 +1°C° 0 mm 2 mps 745 mmHg 89%

25 April, Sunday

Time Temperature Precipitation Wind Pressure Humidity
00:00 -1°C° 0 mm 2 mps 746 mmHg 90%
01:00 -2°C° 0 mm 3 mps 746 mmHg 91%
02:00 -2°C° 0 mm 3 mps 746 mmHg 89%
03:00 -4°C° 0 mm 3 mps 746 mmHg 88%
04:00 -4°C° 0 mm 3 mps 746 mmHg 87%
05:00 -2°C° 0 mm 3 mps 746 mmHg 80%
06:00 -1°C° 0 mm 4 mps 746 mmHg 73%
07:00 0°C° 0 mm 5 mps 746 mmHg 66%
08:00 +1°C° 0.1 mm 5 mps 746 mmHg 61%
09:00 +3°C° 0.1 mm 5 mps 746 mmHg 56%
10:00 +4°C° 0.1 mm 6 mps 746 mmHg 51%
11:00 +4°C° 0.3 mm 6 mps 745 mmHg 50%
12:00 +5°C° 0.3 mm 6 mps 745 mmHg 50%
13:00 +5°C° 0.3 mm 7 mps 745 mmHg 49%
14:00 +5°C° 0.2 mm 7 mps 745 mmHg 51%
15:00 +5°C° 0.2 mm 6 mps 744 mmHg 52%
16:00 +5°C° 0.2 mm 6 mps 744 mmHg 54%
17:00 +3°C° 0.2 mm 5 mps 744 mmHg 58%
18:00 +2°C° 0.2 mm 5 mps 744 mmHg 62%
19:00 +1°C° 0.2 mm 4 mps 744 mmHg 67%
20:00 +1°C° 0.1 mm 3 mps 745 mmHg 73%
21:00 0°C° 0.1 mm 3 mps 745 mmHg 79%
22:00 -1°C° 0.1 mm 2 mps 745 mmHg 84%
23:00 -1°C° 0 mm 2 mps 745 mmHg 85%

26 April, Monday

Time Temperature Precipitation Wind Pressure Humidity
00:00 -1°C° 0 mm 2 mps 745 mmHg 85%
01:00 -2°C° 0 mm 2 mps 745 mmHg 85%
02:00 -2°C° 0 mm 2 mps 745 mmHg 83%
03:00 -2°C° 0 mm 3 mps 745 mmHg 81%
04:00 -2°C° 0 mm 3 mps 745 mmHg 78%
05:00 -1°C° 0 mm 4 mps 745 mmHg 71%
06:00 0°C° 0 mm 4 mps 745 mmHg 63%
07:00 +1°C° 0 mm 5 mps 745 mmHg 56%
08:00 +2°C° 0 mm 5 mps 745 mmHg 52%
09:00 +5°C° 0 mm 5 mps 745 mmHg 48%
10:00 +5°C° 0 mm 6 mps 745 mmHg 45%
11:00 +7°C° 0 mm 5 mps 745 mmHg 45%
12:00 +7°C° 0 mm 5 mps 745 mmHg 46%
13:00 +7°C° 0 mm 5 mps 745 mmHg 47%
14:00 +7°C° 0 mm 5 mps 744 mmHg 49%
15:00 +7°C° 0 mm 4 mps 744 mmHg 50%
16:00 +7°C° 0 mm 4 mps 744 mmHg 52%
17:00 +7°C° 0 mm 3 mps 744 mmHg 58%
18:00 +6°C° 0 mm 2 mps 744 mmHg 63%
19:00 +6°C° 0 mm 1 mps 743 mmHg 69%
20:00 +5°C° 0 mm 1 mps 743 mmHg 71%
21:00 +5°C° 0 mm 1 mps 743 mmHg 72%
22:00 +4°C° 0 mm 1 mps 743 mmHg 74%
23:00 +2°C° 0 mm 2 mps 743 mmHg 76%
Show more

We Need Your Consent

Meteoprog and our Service Providers may store and access personal data such as cookies, device identifiers or other similar technologies on your device and process such data to personalise content and ads, as well as provide social media features and to analyse the traffic.

  • Store and/or access information on your device

    Cookies, device identifiers or other information can be stored or accessed on your device for the purposes indicated above.

  • Personalised ads and content, ad and content measurement, audience insights, and products development

    Ads and content can be personalised based on a profile. More data can be added to better personalise ads and content. Ad and content performance can be measured. Insights about the audience who saw the ads and content can be derived. Such data can be used to develop or improve user’s experience, systems and software.

By clicking ‘I Agree’ you will allow the use of indicated cookies, device identifiers, web beacons or other similar technologies. Your settings can be changed in the browser on your device.

For certain purposes, legitimate interests may be relied on, rather than consent. You can read more about this in our Privacy and Cookie Policy.